Regional Weather Roundup
Issued by NWS Newport/Morehead, NC

Current Version | Previous Version | Graphics & Text | Print | Product List | Glossary On
Versions: 1 2 3 4 5 6 7 8 9 10 11 12 13 14 15 16 17 18 19 20 21 22 23 24 25 26 27 28 29 30 31 32 33 34 35 36 37 38 39 40 41 42 43 44 45 46 47 48 49 50
000 ASUS42 KMHX 022313 RWRMHX WEATHER ROUNDUP FOR EASTERN NORTH CAROLINA NATIONAL WEATHER SERVICE NEWPORT/MOREHEAD CITY NC 700 PM EDT THU JUL 02 2015 NOTE: "FAIR" INDICATES FEW OR NO CLOUDS BELOW 12,000 FEET WITH NO SIGNIFICANT WEATHER AND/OR OBSTRUCTIONS TO VISIBILITY NCZ015>017-031-032-045>047-102-103-030000- NORTH COAST CITY SKY/WX TMP DP RH WIND PRES REMARKS EDENTON N/A 86 69 57 W5 29.84S ELIZABETH CITY PTSUNNY 84 67 56 W7 29.84R KITTY HAWK PTCLDY 86 70 58 SW7 29.82F MANTEO MOSUNNY 85 73 66 SW18 29.84S $$ NCZ045>047-081-094-103-104-030000- CENTRAL COAST CITY SKY/WX TMP DP RH WIND PRES REMARKS FRISCO SUNNY 81 73 76 SW15 29.89S SWANQUARTER N/A 82 N/A N/A SW13G25 29.82S $$ NCZ095-097-098-100-101-030000- SOUTHERN COAST CITY SKY/WX TMP DP RH WIND PRES REMARKS BEAUFORT SUNNY 82 76 81 SW25G32 29.90R CEDAR ISLAND N/A 84 N/A N/A S17G23 29.91S JACKSONVILLE SUNNY 85 73 67 S14 29.87R PINEY ISLAND PTCLDY N/A N/A N/A SW21G31 29.88R WILMINGTON SUNNY 84 71 65 SW18G28 29.89R $$ NCZ011>013-027>030-043-044-078>080-089-090>093-098-030000- COASTAL PLAIN CITY SKY/WX TMP DP RH WIND PRES REMARKS AHOSKIE CLOUDY 76 71 86 CALM 29.87S CLINTON PTSUNNY 78 76 95 CALM 29.87S ELIZABETHTOWN LGT RAIN 77 71 80 W7G18 29.89R GOLDSBORO MOSUNNY 85 73 67 S5 29.82F GREENVILLE MOSUNNY 86 70 58 SW6 29.88S HAVELOCK MOSUNNY 83 73 72 SW14G23 29.89R KENANSVILLE MOSUNNY 84 68 59 SW5 29.87S KINSTON LGT RAIN 82 73 74 S6 29.86F NEW BERN PTSUNNY 84 75 74 SW10 29.88R RICHLANDS SUNNY 88 68 51 SW9 29.88R ROCKY MOUNT HVY RAIN 80 70 71 W8G20 29.86R WASHINGTON PTSUNNY 83 69 62 SW7 29.86R WHITEVILLE MOSUNNY 85 69 60 W7G18 29.90R $$ AMZ130-135-150-152-154-156-158-170-250-252-270-ANZ085-086-088-633-658-670-030000- MARINE OBSERVATIONS STATION/POSITION TIME TEMP WIND PRES WAVE SWELL AIR SEA DIR/SP/G HT/PER HT/PER (UTC) (F) (DEG/KT/KT) (MB) (FT/S) (FT/S) CHESAPEAKE LIGHT 2300 75 360/ 15/ 15 1011.3 64 E VA BEACH 2250 80 77 220/ 17/ 21 1009.6 5/ 5 2/ 8 DUCK 2200 86 62 230/ 12/ 18 1009.2 2 E DUCK 2211 71 N/A 2/ 8 OREGON INLET 2200 82 82 200/ 22/ 26 1010.6 13E OREGON INLT 2300 74 N/A 5/ 5 HATTERAS CG 2200 81 80 210/ 13/ 18 1011.6 DIAMOND BUOY 2250 83 83 220/ 25/ 29 1011.7 6/ 6 2/ 8 CAPE LOOKOUT 2300 82 210/ 16/ 20 1012.1 BEAUFORT LAB 2200 82 82 210/ 14/ 22 1011.5 30 SE NEW RVR IN NOT AVBL 27 SE WRIGHTSVLE 2200 81 210/ 19/ 23 N/A 5 SE WRIGHTSVLE NOT AVBL 225 S CAPE HAT 2250 81 80 200/ 12/ 14 1017.9 6/ 7 5/ 7 41 SE CHARLESTON 2250 82 82 200/ 21/ 23 1013.3 4/ 5 2/ 9 $$

USA.gov is the U.S. government's official web portal to all federal, state and local government web resources and services.